Location: Meanaryar
(48.4161°N, 4.7315°W)
Time: 06:22:27
(UTC+00:00)

Cosmos 1844 Rocket - Pass Details

Date: 18 September 2020
Orbit: 823 x 846 km, 71.0° (Epoch: 23 October)

Event Time Altitude Azimuth Distance (km) Brightness Sun altitude
Rises 21:21:47 0° 224° (SW) 3,349 5.9 -27.9°
Reaches altitude 10° 21:24:17 10° 230° (SW) 2,422 5.2 -28.3°
Maximum altitude 21:29:38 49° 305° (NW) 1,067 3.5 -28.9°
Drops below altitude 10° 21:35:04 10° 20° (NNE) 2,447 5.3 -29.6°
Sets 21:37:37 0° 26° (NNE) 3,387 6.1 -29.9°
